STARLINK-35330, 65791

Orbit data source: Space-Track

STARLINK-35330, 65791 is a payload satellite owned by SpaceX/Seattle (US) in SSO that was launched on Fri, 26 Sep 2025 UTC via an FALCON 9 launch vehicle from the Air Force Western Test Range (AFWTR). Payload-class satellites include a variety of spacecraft equipped with specific instruments for various scientific and technological missions. These include communications satellites like Starlink; space stations such as the ISS; scientific satellites like the Hubble; Earth observation satellites from companies like Planet Labs, Umbra, and HawkEye 360; GPS; miniature CubeSats for education and research; and military/defense satellites.

Loading next visibility...
Identifier
65791, 2025-218A
Orbit
SSO
Country
Flag of USUS
Related business
Manufacturer
SpaceX/Seattle
Mission
Operational Commercial Communications
Bus & Motor
STARLINK V2MO, Unknown motor
Mass
575 kg wet, ~530 kg dry
Launch date (UTC)
2025-09-26 (2 months ago)
Launch vehicle
FALCON 9
Launch site
Air Force Western Test Range (AFWTR)
Object type
Payload
Rocket body
Debris
Shape & HBR
Box + 2 Pan, 17.7 m
Radar Cross Section
36.964 m²

Expand to show TLE details & history
Last TLE update: 16 hours ago

TLE from 16 hours ago
0 STARLINK-35330
1 65791U 25218A   25340.56983194  .00017235  00000-0  11958-2 0  9999
2 65791  97.6008 201.0996 0002541  89.5675 270.5843 15.05645793 10958
Epoch: 2025-12-06T13:40Z
TLE epoch observation values (Epoch: 2025-12-06T13:40:33.479Z)
Latitude
-0.00003°
Longitude
-79.63557°
Altitude
552.572 km
Speed
7.585 km/s
True Right ascension
13h 24m 23s
True Declination
0° 00' 00"
Sunlit
Object was in daylight at epoch
Visualization orbit readout
Latitude
Unknown
Longitude
Unknown
Altitude
Unknown
Speed
Unknown
Apparent Right ascension
Unknown
Apparent Declination
Unknown
Sunlit
N/A
Visualization observer readout
Local Sidereal Time
03:22:55
Azimuth
Unknown
Elevation
Unknown
Doppler factor
Unknown
Orbital elements
Apogee altitude
548.277 km
Perigee altitude
544.758 km
Semi-major axis
6,924.654 km
Eccentricity
0.00025
Inclination
97.6008°
RAAN
201.0996°
Arg. of periapsis
89.5675°
True anomaly
270.55518°
Mean anomaly
270.5843°
Eccentric anomaly
270.56974°
Mean motion
3.76657 °/min
Orbital period
95.58 mins
BSTAR
0.0011958
Loading maneuver chart data...
Computing Atmospheric mass density...
Loading historical data...
Loading historical data...
Loading historical data...
Loading historical data...
Loading historical data...
Loading historical data...
Loading historical data...

Documentation

Showing up to 5 results
|